Location: Newark
(42.9858°N, 0.6717°E)
Time: 04:12:54
(UTC+00:00)

Explorer 11/Cluster Stage 4 - All Passes

Search period start: 13 November 2019 00:00
Search period end: 23 November 2019 00:00
Orbit: 467 x 1259 km, 28.8° (Epoch: 12 November)

Date Brightness Start Highest point End Pass type
(mag) Time Alt. Az. Time Alt. Az. Time Alt. Az.
13 Nov - 00:42:42 10° WSW 00:49:26 29° S 00:56:05 10° SE night (unlit)
13 Nov - 02:31:58 10° WSW 02:37:42 21° SSW 02:43:07 10° SSE visible
13 Nov - 20:58:27 10° S 21:02:07 14° SSE 21:06:00 10° SE night (unlit)
13 Nov - 22:43:58 10° SW 22:50:05 26° S 22:56:34 10° ESE night (unlit)
14 Nov - 00:31:49 10° WSW 00:38:27 28° S 00:45:08 10° SE night (unlit)
14 Nov - 02:21:12 10° WSW 02:26:42 20° SSW 02:31:59 10° SSE visible
14 Nov - 20:47:15 10° S 20:51:09 15° SSE 20:55:21 10° ESE night (unlit)
14 Nov - 22:33:04 10° SW 22:39:07 26° S 22:45:38 10° ESE night (unlit)
15 Nov - 00:20:58 10° WSW 00:27:28 28° S 00:34:07 10° SE night (unlit)
15 Nov - 02:10:31 10° WSW 02:15:42 18° SSW 02:20:46 10° SSE night (unlit)
15 Nov - 20:36:10 10° SSW 20:40:12 16° SSE 20:44:35 10° ESE night (unlit)
15 Nov - 22:22:13 10° SW 22:28:09 27° S 22:34:38 10° ESE night (unlit)
16 Nov - 00:10:11 10° WSW 00:16:30 27° S 00:23:03 10° SE night (unlit)
16 Nov - 01:59:56 10° WSW 02:04:42 17° SSW 02:09:25 10° SSE night (unlit)
16 Nov - 20:25:11 10° SSW 20:29:16 17° SSE 20:33:45 10° ESE visible
16 Nov - 22:11:26 10° SW 22:17:13 27° S 22:23:37 10° ESE night (unlit)
16 Nov - 23:59:28 10° WSW 00:05:32 25° S 00:11:55 10° SE night (unlit)
17 Nov - 01:49:29 10° SW 01:53:42 15° SSW 01:57:55 10° S night (unlit)
17 Nov - 20:14:17 10° SSW 20:18:21 18° SSE 20:22:53 10° ESE visible
17 Nov - 22:00:41 10° SW 22:06:17 26° S 22:12:34 10° ESE night (unlit)
17 Nov - 23:48:47 10° WSW 23:54:34 24° S 00:00:43 10° SE night (unlit)
18 Nov - 01:39:14 10° SW 01:42:41 13° SSW 01:46:11 10° S night (unlit)
18 Nov - 20:03:27 10° SSW 20:07:28 18° SSE 20:11:58 10° ESE visible
18 Nov - 21:50:01 10° SW 21:55:23 26° S 22:01:28 10° SE night (unlit)
18 Nov - 23:38:11 10° WSW 23:43:37 22° SSW 23:49:27 10° SSE night (unlit)
19 Nov - 01:29:25 10° SW 01:31:42 11° SSW 01:34:02 10° S night (unlit)
19 Nov - 19:52:42 10° SSW 19:56:36 18° SSE 20:01:00 10° ESE visible
19 Nov - 21:39:22 10° SW 21:44:30 25° S 21:50:20 10° SE night (unlit)
19 Nov - 23:27:40 10° WSW 23:32:41 20° SSW 23:38:06 10° SSE night (unlit)
20 Nov - 19:42:00 10° SSW 19:45:45 18° SSE 19:50:02 10° SE visible
20 Nov - 21:28:47 10° SW 21:33:38 23° S 21:39:10 10° SE night (unlit)
20 Nov - 23:17:14 10° SW 23:21:45 18° SSW 23:26:40 10° SSE night (unlit)
21 Nov - 19:31:20 10° SSW 19:34:56 18° SSE 19:39:01 10° SE visible
21 Nov - 21:18:16 10° SW 21:22:47 22° S 21:27:58 10° SE night (unlit)
21 Nov - 23:06:57 10° SW 23:10:51 16° SSW 23:15:05 10° SSE night (unlit)
22 Nov - 19:20:44 10° SSW 19:24:09 18° S 19:28:00 10° SE visible
22 Nov - 21:07:47 10° SW 21:11:57 20° S 21:16:43 10° SE night (unlit)
22 Nov - 22:56:52 10° SW 22:59:58 13° SSW 23:03:18 10° S night (unlit)
